Regional Weather Roundup
Issued by NWS

Home | Current Version | Previous Version | Text Only | Print | Product List | Glossary On
Versions: 1 2 3 4 5 6 7 8 9 10 11 12 13 14 15 16 17 18 19 20 21 22 23 24 25 26 27 28 29 30 31 32 33 34 35 36 37 38 39 40 41 42 43 44 45 46 47 48 49 50
000
ASUS43 KDTX 190001
RWRMI
MICHIGAN HOURLY REGIONAL WEATHER ROUNDUP
NATIONAL WEATHER SERVICE DETROIT/PONTIAC MI
800 PM EDT SAT APR 18 2015

NOTE: "FAIR" INDICATES FEW OR NO CLOUDS BELOW 12,000 FEET WITH NO
SIGNIFICANT WEATHER AND/OR OBSTRUCTION TO VISIBILITY.

MIZ047>049-052>055-059>063-066>070-074>076-081>083-190100-
SOUTHEAST LOWER MICHIGAN

CITY           SKY/WX    TMP DP  RH WIND       PRES   REMARKS
ADRIAN         PTCLDY    62  29  28 E15       30.09R
6HR MIN TEMP:  62; 6HR MAX TEMP:  78;

ALMA           PTCLDY    55  26  32 NE13      30.16R
ANN ARBOR      PTCLDY    62  19  19 NE12      30.10S
BAD AXE        CLEAR     48  30  50 NE10      30.19S
CARO           CLEAR     52  30  43 CALM      30.17R
DETROIT CITY   PTCLDY    55  32  41 NE12      30.13R
6HR MIN TEMP:  55; 6HR MAX TEMP:  66;

DETROIT        MOCLDY    63  12  13 N13       30.11S
6HR MIN TEMP:  63; 6HR MAX TEMP:  72;

FLINT          CLEAR     57  23  26 NE10      30.14R
6HR MIN TEMP:  57; 6HR MAX TEMP:  70;

GROSSE ILE     PTCLDY    57  23  26 NE14      30.10S
HILLSDALE      PTCLDY    65  34  32 E13G20    30.07S
HOWELL         CLEAR     59  19  20 NE12      30.12R
6HR MIN TEMP:  59; 6HR MAX TEMP:  70;


CITY           SKY/WX    TMP DP  RH WIND       PRES   REMARKS
JACKSON        CLEAR     63  28  26 E14       30.08R
6HR MIN TEMP:  63; 6HR MAX TEMP:  75;

LAMBERTVILLE   MOCLDY    61  14  16 NE10      30.10F
LANSING        CLEAR     60  24  25 NE14      30.12R
6HR MIN TEMP:  60; 6HR MAX TEMP:  69;

LAPEER         FAIR      52  23  32 NE8       30.16R
MASON          CLEAR     60  27  27 E15       30.11R
MONROE         PTCLDY    61  12  15 NE10G16   30.09S
PONTIAC        MOCLDY    57  18  21 NE8       30.13R
6HR MIN TEMP:  57; 6HR MAX TEMP:  68;

PORT HOPE        N/A     43  35  73 N9        30.19F
6HR MIN TEMP:  43; 6HR MAX TEMP:  48;

PORT HURON     CLEAR     46  32  57 NE9       30.17R
TRI CITIES     CLEAR     51  36  56 NE15      30.18R
6HR MIN TEMP:  51; 6HR MAX TEMP:  61;

TROY           CLEAR     61  12  14 NE10G17   30.15R
SAGINAW HB     CLEAR     54  30  40 NE13G18   30.16R
$$
MIZ043>046-050>051-056>058-064>065-071>073-077>080-190100-
SOUTHWEST LOWER MICHIGAN

CITY           SKY/WX    TMP DP  RH WIND       PRES   REMARKS
BATTLE CREEK   CLEAR     67  33  28 NE16      30.06S
6HR MIN TEMP:  67; 6HR MAX TEMP:  75;

BENTON HARBOR  PTCLDY    57  40  52 NE6       29.99F
6HR MIN TEMP:  52; 6HR MAX TEMP:  66;

BIG RAPIDS     CLEAR     60  24  24 SE10G21   30.12R
6HR MIN TEMP:  60; 6HR MAX TEMP:  70;

COLDWATER      PTCLDY    66  38  36 SE10G18   30.04S
6HR MIN TEMP:  66; 6HR MAX TEMP:  75;

FREMONT        FAIR      62  20  20 E14G21    30.09R
HOLLAND        CLEAR     65  25  22 E15G21    30.06R
6HR MIN TEMP:  65; 6HR MAX TEMP:  77;

GRAND RAPIDS   PTCLDY    60  20  21 NE18      30.09S
6HR MIN TEMP:  60; 6HR MAX TEMP:  73;

IONIA          FAIR      59  24  25 NE12G18   30.11R
KALAMAZOO      CLEAR     68  28  22 NE10G21   30.05R
6HR MIN TEMP:  68; 6HR MAX TEMP:  78;

LUDINGTON      CLEAR     64  33  31 N5        30.06R
MARSHALL       CLEAR     65  32  29 NE7       30.06S
MOUNT PLEASANT CLEAR     54  15  21 E8        30.16R
6HR MIN TEMP:  54; 6HR MAX TEMP:  68;

MUSKEGON       MOCLDY    64  23  21 E18G25    30.07R
6HR MIN TEMP:  64; 6HR MAX TEMP:  76;

SOUTH HAVEN    CLEAR     69  26  20 E12G21    30.01F
$$
MIZ016>042-190100-
NORTHERN LOWER MICHIGAN

CITY           SKY/WX    TMP DP  RH WIND       PRES   REMARKS
ALPENA         CLEAR     53  22  29 E7        30.21F
6HR MIN TEMP:  53; 6HR MAX TEMP:  59;

BEAVER ISLAND  CLEAR     54  24  31 NE6       30.18S
6HR MIN TEMP:  54; 6HR MAX TEMP:  59;

BELLAIRE       CLEAR     62  19  19 NE9       30.13S
6HR MIN TEMP:  62; 6HR MAX TEMP:  67;

CADILLAC       CLEAR     60  29  31 SE16      30.11R
CHARLEVOIX     CLEAR     51  29  42 NE3       30.19S
6HR MIN TEMP:  46; 6HR MAX TEMP:  52;

FRANKFORT      CLEAR     58  21  24 NE9G17    30.10S
GAYLORD        CLEAR     55  17  22 NE13G18   30.16S
6HR MIN TEMP:  55; 6HR MAX TEMP:  62;

GRAYLING       CLEAR     58  18  21 E12       30.15S
6HR MIN TEMP:  58; 6HR MAX TEMP:  65;

HARBOR SPRINGS CLEAR     55  21  26 NE9       30.18S
HOUGHTON LAKE  CLEAR     56  25  30 SE12      30.14R
6HR MIN TEMP:  56; 6HR MAX TEMP:  67;

MANISTEE       CLEAR     61  27  27 NE15      30.09R
OSCODA         CLEAR     48  29  47 NE8       30.20S
PELLSTON       CLEAR     56  21  25 E7        30.19S
6HR MIN TEMP:  56; 6HR MAX TEMP:  62;

ROGERS CITY    CLEAR     52  29  41 CALM      30.22S
TRAVERSE CITY  PTCLDY    50  32  50 W3        30.12F
6HR MIN TEMP:  50; 6HR MAX TEMP:  56;

$$
MIZ007>008-015-190100-
EASTERN UPPER MICHIGAN

CITY           SKY/WX    TMP DP  RH WIND       PRES   REMARKS
KINROSS        CLEAR     46  25  42 NW13      30.22R
6HR MIN TEMP:  46; 6HR MAX TEMP:  55;

MACKINAC ISLAN CLEAR     52  28  39 E3        30.20S
6HR MIN TEMP:  52; 6HR MAX TEMP:  57;

NEWBERRY       CLEAR     45  30  54 N10       30.21S
S. S. MARIE    CLEAR     48  25  40 W7        30.21R
6HR MIN TEMP:  48; 6HR MAX TEMP:  55;

$$
MIZ004>006-011>014-085-190100-
CENTRAL UPPER MICHIGAN

CITY           SKY/WX    TMP DP  RH WIND       PRES   REMARKS
MANISTIQUE     CLEAR     53  30  41 CALM      30.18S
ESCANABA       CLEAR     52  30  43 CALM      30.16F
6HR MIN TEMP:  50; 6HR MAX TEMP:  55;

MENOMINEE      PTCLDY    54  27  35 E16       30.13F
6HR MIN TEMP:  50; 6HR MAX TEMP:  55;

SAWYER-GWINN   CLEAR     43  30  61 N12       30.20S
$$
MIZ001>003-009>011-084-190100-
WESTERN UPPER MICHIGAN

CITY           SKY/WX    TMP DP  RH WIND       PRES   REMARKS
IRON MOUNTAIN  CLEAR     57  18  21 SE12      30.13S
6HR MIN TEMP:  56; 6HR MAX TEMP:  62;

HOUGHTON       CLEAR     41  28  60 E13G20    30.18F
6HR MIN TEMP:  41; 6HR MAX TEMP:  49;

COPPER HARBOR    N/A     40  29  64 SE6       30.21F
6HR MIN TEMP:  38; 6HR MAX TEMP:  41;

IRONWOOD       CLEAR     63  21  20 SE14      30.03F
6HR MIN TEMP:  55; 6HR MAX TEMP:  64;

$$

ABBREVIATIONS USED IN REMARKS
   TC - TEMPERATURE IN CELSIUS
  WCI - WIND CHILL INDEX
   HX - HEAT INDEX
  VSB - VISIBILITY



USA.gov is the U.S. government's official web portal to all federal, state and local government web resources and services.